Regional Weather Roundup
Issued by NWS Green Bay, WI

Home | Current Version | Previous Version | Graphics & Text | Print | Product List | Glossary Off
Versions: 1 2 3 4 5 6 7 8 9 10 11 12 13 14 15 16 17 18 19 20 21 22 23 24 25 26 27 28 29 30 31 32 33 34 35 36 37 38 39 40 41 42 43 44 45 46 47 48 49 50

000
ASUS43 KGRB 290601
RWRGRB

NORTH-CENTRAL AND NORTHEAST WISCONSIN REGIONAL WEATHER ROUNDUP
NATIONAL WEATHER SERVICE GREEN BAY WI
100 AM CDT SAT AUG 29 2015

WIZ005-009-010>012-018-019-290700-
NORTH CENTRAL WISCONSIN

CITY           SKY/WX    TMP DP  RH WIND       PRES   REMARKS
IRONWOOD       FAIR      63  57  82 S12       30.01F
MANITOWISH WTR NOT AVBL
ARBOR VITAE    NOT AVBL
EAGLE RIVER    NOT AVBL
LAND O LAKES   NOT AVBL
RHINELANDER    CLOUDY    60  55  83 S8        30.11R
PHILLIPS       FAIR      56  55  96 S3        30.09S
ANTIGO         NOT AVBL
TOMAHAWK       NOT AVBL
MERRILL        CLOUDY    59  55  88 CALM      30.11R
$$

WIZ013-073-290700-
NORTHEAST WISCONSIN

CITY           SKY/WX    TMP DP  RH WIND       PRES   REMARKS
IRON MOUNTAIN  CLOUDY    65  59  81 SW8       30.08R
MARINETTE      CLOUDY    61  55  82 W6        30.10R
OCONTO         CLOUDY    59  59 100 CALM      30.11S
$$

WIZ017-030-035>037-045-290700-
CENTRAL WISCONSIN

CITY           SKY/WX    TMP DP  RH WIND       PRES   REMARKS
MEDFORD        NOT AVBL
WAUSAU         CLOUDY    59  55  87 CALM      30.08R
MOSINEE        NOT AVBL
MARSHFIELD     CLOUDY    57  53  86 NE5       30.08R
WISC RAPIDS    LGT RAIN  57  54  89 SE8       30.08S
STEVENS POINT  NOT AVBL
WAUPACA        NOT AVBL
SHAWANO        NOT AVBL
CLINTONVILLE   CLOUDY    57  55  94 SE3       30.09F
WAUTOMA        NOT AVBL
$$

WIZ038-039-048-051-290700-
FOX VALLEY

CITY           SKY/WX    TMP DP  RH WIND       PRES   REMARKS
NWS GREEN BAY  LGT RAIN  58  56  93 S6        30.11F
APPLETON       NOT AVBL
OSHKOSH        LGT RAIN  57  54  89 E5        30.09F
FOND DU LAC    RAIN      59  57  93 E8        30.09F
$$

WIZ022-050-052-290700-
EAST CENTRAL WISCONSIN

CITY           SKY/WX    TMP DP  RH WIND       PRES   REMARKS
EPHRAIM        CLOUDY    61  58  91 SW8G16    30.10R
STURGEON BAY   CLOUDY    61  55  82 SW12      30.14R
MANITOWOC      NOT AVBL
SHEBOYGAN      RAIN      59  57  93 N6        30.10F FOG
$$

LMZ563-521-522-541>543-290700-
LAKESHORE

STATION/POSITION TIME  TEMP    WIND        PRES    VSBY  WAVE
                       AIR SEA DIR/SP/G                  HT/PER
                 (UTC) (F)     (DEG/KT/KT) (MB)    (MI)  (FT/S)
SHEBOYGAN LKSHOR 0500   58     350/  9/ 10 1019.8F
ALGOMA MARINA    0514          250/  8/ 11   N/A
NORTHPORT PIER   0500   64     230/  6/ 10 1018.3S
N MID LAKE BUOY  0450   63 64  220/ 16/ 19 1017.8F         2/ 5
SISTER BAY LKSHO 0504   64     230/ 14/ 17   N/A
CHAMBERS ISLAND  0500   62     200/  9/ 15 1018.6S
$$


USA.gov is the U.S. government's official web portal to all federal, state and local government web resources and services.